This is the latest recevied weather packets stored in our database for station/object NY3Q. If no packets are shown the sender has not sent any weather packets the latest 1 day(s).
| Time | Temp. | Humidity | Pressure | Rain* | Wind** | Luminosity | Snow |
|---|---|---|---|---|---|---|---|
| 1778114940 | 25° C | 65% | 1015.2 hPa | 0 mm | - | 0 W/m² | - |
| 1778114637 | 25° C | 64% | 1015 hPa | 0 mm | - | 0 W/m² | - |
| 1778114334 | 25° C | 64% | 1014.9 hPa | 0 mm | - | 0 W/m² | - |
| 1778113725 | 25.56° C | 63% | 1014.8 hPa | 0 mm | - | 0 W/m² | - |
| 1778113421 | 25.56° C | 63% | 1014.9 hPa | 0 mm | - | 0 W/m² | - |
| 1778112512 | 25.56° C | 63% | 1014.4 hPa | 0 mm | - | 2 W/m² | - |
| 1778110995 | 26.67° C | 61% | 1014.2 hPa | 0 mm | - | 11 W/m² | - |
| 1778110388 | 27.22° C | 61% | 1014.4 hPa | 0 mm | - | 19 W/m² | - |
| 1778107963 | 28.33° C | 59% | 1014.2 hPa | 0 mm | - | 112 W/m² | - |
| 1778106748 | 28.89° C | 60% | 1014.3 hPa | 0 mm | - | 197 W/m² | - |
| 1778105537 | 30° C | 59% | 1014.4 hPa | 0 mm | - | 252 W/m² | - |
| 1778105234 | 30° C | 59% | 1014.3 hPa | 0 mm | - | 265 W/m² | - |
| 1778104321 | 30° C | 58% | 1014.2 hPa | 0 mm | - | 285 W/m² | - |
| 1778104018 | 30.56° C | 57% | 1014.3 hPa | 0 mm | - | 276 W/m² | - |
| 1778103414 | 31.11° C | 56% | 1014.3 hPa | 0 mm | - | 278 W/m² | - |
| 1778101895 | 31.11° C | 59% | 1014.7 hPa | 0 mm | - | 394 W/m² | - |
| 1778101592 | 31.11° C | 58% | 1014.5 hPa | 0 mm | - | 380 W/m² | - |
| 1778097954 | 31.11° C | 59% | 1014.9 hPa | 0 mm | - | 446 W/m² | - |
| 1778097651 | 31.11° C | 58% | 1014.9 hPa | 0 mm | - | 516 W/m² | - |
| 1778097044 | 31.11° C | 59% | 1015.3 hPa | 0 mm | - | 497 W/m² | - |
| 1778096742 | 31.11° C | 57% | 1015.1 hPa | 0 mm | - | 564 W/m² | - |
| 1778095225 | 31.67° C | 56% | 1015.5 hPa | 0 mm | - | 509 W/m² | - |
| 1778094922 | 31.67° C | 59% | 1015.6 hPa | 0 mm | - | 532 W/m² | - |
| 1778094618 | 32.22° C | 56% | 1015.5 hPa | 0 mm | - | 537 W/m² | - |
| 1778091890 | 33.89° C | 43% | 1016.1 hPa | 0 mm | - | 654 W/m² | - |
* Rain latest hour (hover to see other rain measurements)
** Current wind speed in m/s (hover to see current wind gust speed)